Wellsville, NY

1:12 PM EST on December 15, 2019 (GMT -0500)
Wellsville Municipal-Tarantine

Weather History for KELZ - August, 2019

Change the Weather History Date:

Sunday, August 11, 2019

  Actual Average (KDSV) Record (KDSV)
Temperature  
Mean Temperature 60 °F -  
Max Temperature 73 °F 81 °F 97 °F (1949)
Min Temperature 48 °F 58 °F 44 °F (1972)
Degree Days  
Heating Degree Days 4    
Growing Degree Days 10 (Base 50)    
Moisture  
Dew Point 52 °F    
Average Humidity 74    
Maximum Humidity 100    
Minimum Humidity 49    
Precipitation  
Precipitation 0.00 in - - ()
Sea Level Pressure  
Sea Level Pressure 30.09 in    
Wind  
Wind Speed 4 mph ()    
Max Wind Speed 14 mph    
Max Gust Speed 18 mph    
Visibility 9.4 miles    
Events      
Averages and records for this station are not official NWS values.
T = Trace of Precipitation, MM = Missing Value Source: Averaged Metar Reports

Daily Weather History Graph

Daily Weather History Graph

Search for Another Location

Airport or City:

Astronomy

Aug. 11, 2019 Rise Set
Actual Time 6:15 AM EDT 8:18 PM EDT
Civil Twilight 5:44 AM EDT 8:48 PM EDT
Nautical Twilight 5:07 AM EDT 9:26 PM EDT
Astronomical Twilight 4:26 AM EDT 10:06 PM EDT
Moon 5:58 PM EDT (8/11) 2:31 AM EDT (8/11)
Length of Visible Light 15h 04m
Length of Day
14h 03m
Waxing Gibbous, 87% of the Moon is Illuminated
Aug 11
Waxing Gibbous
Aug 15
Full
Aug 23
Last Quarter
Aug 30
New
Sep 5
First Quarter

Hourly Weather History & Observations

Time (EDT) Temp. Dew Point Humidity Pressure Visibility Wind Dir Wind Speed Gust Speed Precip Events Conditions
12:56 AM 54.0 °F 51.1 °F 90% 30.05 in 10.0 mi WNW 3.5 mph - N/A   Clear
1:56 AM 52.0 °F 48.9 °F 89% 30.05 in 10.0 mi West 4.6 mph - N/A   Clear
2:56 AM 54.0 °F 48.9 °F 83% 30.06 in 10.0 mi West 5.8 mph - N/A   Clear
3:56 AM 53.1 °F 48.9 °F 86% 30.07 in 10.0 mi West 5.8 mph - N/A   Clear
4:56 AM 51.1 °F 48.9 °F 92% 30.08 in 10.0 mi WSW 5.8 mph - N/A   Clear
5:56 AM 51.1 °F 48.9 °F 92% 30.09 in 10.0 mi Calm Calm - N/A   Clear
6:26 AM 48.9 °F 48.9 °F 100% 30.11 in 1.8 mi Calm Calm - N/A   Clear
6:29 AM 48.9 °F 48.9 °F 100% 30.11 in 3.0 mi Calm Calm - N/A   Clear
6:56 AM 51.1 °F 50.0 °F 96% 30.11 in 10.0 mi Calm Calm - N/A   Clear
7:56 AM 54.0 °F 52.0 °F 93% 30.12 in 10.0 mi Calm Calm - N/A   Clear
8:56 AM 59.0 °F 53.1 °F 81% 30.13 in 10.0 mi WSW 3.5 mph - N/A   Clear
9:56 AM 64.0 °F 53.1 °F 67% 30.12 in 10.0 mi WNW 5.8 mph - N/A   Clear
10:56 AM 66.9 °F 50.0 °F 54% 30.14 in 10.0 mi WNW 9.2 mph - N/A   Clear
11:56 AM 69.1 °F 51.1 °F 53% 30.14 in 10.0 mi West 11.5 mph - N/A   Clear
12:56 PM 69.1 °F 51.1 °F 53% 30.12 in 10.0 mi West 9.2 mph - N/A   Scattered Clouds
1:56 PM 70.0 °F 51.1 °F 51% 30.13 in 10.0 mi West 11.5 mph - N/A   Mostly Cloudy
2:56 PM 71.1 °F 52.0 °F 51% 30.12 in 10.0 mi NW 13.8 mph 18.4 mph N/A   Scattered Clouds
3:56 PM 72.0 °F 52.0 °F 49% 30.10 in 10.0 mi WNW 11.5 mph - N/A   Scattered Clouds
4:56 PM 73.0 °F 53.1 °F 49% 30.09 in 10.0 mi WNW 11.5 mph 17.3 mph N/A   Mostly Cloudy
5:56 PM 71.1 °F 55.0 °F 57% 30.09 in 10.0 mi West 6.9 mph - N/A   Clear
6:56 PM 70.0 °F 55.0 °F 59% 30.08 in 10.0 mi West 4.6 mph - N/A   Clear
7:56 PM 66.9 °F 55.9 °F 68% 30.08 in 10.0 mi West 3.5 mph - N/A   Clear
8:56 PM 64.9 °F 55.0 °F 70% 30.07 in 10.0 mi West 5.8 mph - N/A   Clear
9:56 PM 63.0 °F 55.0 °F 75% 30.07 in 10.0 mi NW 3.5 mph - N/A   Clear
10:56 PM 62.1 °F 55.0 °F 78% 30.06 in 10.0 mi Calm Calm - N/A   Clear
11:56 PM 59.0 °F 54.0 °F 83% 30.06 in 10.0 mi Calm Calm - N/A   Clear